Jefferson, NC

5:49 PM EDT on May 29, 2017 (GMT -0400)
Ashe County

Weather History for KGEV - March, 2014

Change the Weather History Date:

Saturday, March 8, 2014

  Actual Average Record
Temperature  
Mean Temperature 49 °F -  
Max Temperature 57 °F 52 °F 75 °F (1974)
Min Temperature 41 °F 27 °F 12 °F (1986)
Degree Days  
Heating Degree Days 16    
Moisture  
Dew Point 28 °F    
Average Humidity 47    
Maximum Humidity 69    
Minimum Humidity 24    
Precipitation  
Precipitation 0.00 in - - ()
Sea Level Pressure  
Sea Level Pressure 30.01 in    
Wind  
Wind Speed 12 mph (West)    
Max Wind Speed 23 mph    
Max Gust Speed 28 mph    
Visibility 10 miles    
Events      
Averages and records for this station are not official NWS values.
T = Trace of Precipitation, MM = Missing Value Source: NWS Daily Summary

Daily Weather History Graph

Daily Weather History Graph

Search for Another Location

Airport or City:

Trip Planner

Search our weather history database for the weather conditions in past years. The results will help you decide how hot, cold, wet, or windy it might be!

Date:

Astronomy

Mar. 08, 2014 Rise Set
Actual Time 6:46 AM EST 6:26 PM EST
Civil Twilight 6:20 AM EST 6:52 PM EST
Nautical Twilight 5:51 AM EST 7:22 PM EST
Astronomical Twilight 5:21 AM EST 7:52 PM EST
Moon 11:37 AM EST (3/8) 1:13 AM EST (3/8)
Length of Visible Light 12h 31m
Length of Day
11h 40m
First Quarter, 51% of the Moon is Illuminated
Mar 8
First Quarter
Mar 16
Full
Mar 23
Last Quarter
Mar 30
New
Apr 7
First Quarter

Hourly Weather History & Observations

Time (EST) Temp. Windchill Dew Point Humidity Pressure Visibility Wind Dir Wind Speed Gust Speed Precip Events Conditions
12:15 AM 45.0 °F 38.2 °F 31.5 °F 59% 29.94 in 10.0 mi WNW 15.0 mph 23.0 mph N/A   Clear
12:35 AM 44.1 °F 37.4 °F 31.8 °F 62% 29.95 in 10.0 mi WNW 13.8 mph 20.7 mph N/A   Clear
12:55 AM 44.6 °F 37.2 °F 32.0 °F 61% 29.96 in 10.0 mi WNW 17.3 mph 27.6 mph N/A   Clear
1:15 AM 44.2 °F 36.4 °F 32.0 °F 62% 29.96 in 10.0 mi WNW 18.4 mph 24.2 mph N/A   Clear
1:35 AM 44.1 °F 39.0 °F 32.0 °F 63% 29.97 in 10.0 mi NW 9.2 mph 21.9 mph N/A   Clear
1:55 AM 43.9 °F 40.5 °F 32.0 °F 63% 29.97 in 10.0 mi WNW 5.8 mph - N/A   Clear
2:15 AM 43.7 °F - 32.0 °F 63% 29.97 in 10.0 mi Calm Calm - N/A   Clear
2:35 AM 43.9 °F 39.3 °F 32.0 °F 63% 29.97 in 10.0 mi WNW 8.1 mph - N/A   Clear
2:55 AM 43.5 °F 37.9 °F 32.2 °F 64% 29.97 in 10.0 mi West 10.4 mph 17.3 mph N/A   Clear
3:15 AM 43.7 °F 38.1 °F 32.2 °F 64% 29.97 in 10.0 mi WNW 10.4 mph 25.3 mph N/A   Clear
3:35 AM 43.0 °F 38.8 °F 32.4 °F 66% 29.97 in 10.0 mi West 6.9 mph - N/A   Clear
3:55 AM 41.5 °F - 32.2 °F 69% 29.97 in 10.0 mi Calm Calm - N/A   Clear
4:15 AM 42.3 °F 35.1 °F 32.7 °F 69% 29.97 in 10.0 mi WNW 13.8 mph - N/A   Clear
4:35 AM 43.5 °F 36.7 °F 32.5 °F 65% 29.98 in 10.0 mi WNW 13.8 mph 21.9 mph N/A   Clear
4:55 AM 43.0 °F 34.8 °F 32.5 °F 67% 29.99 in 10.0 mi West 18.4 mph 25.3 mph N/A   Clear
5:15 AM 42.8 °F 34.5 °F 32.7 °F 68% 29.99 in 10.0 mi WNW 18.4 mph 23.0 mph N/A   Clear
5:35 AM 42.8 °F 35.1 °F 32.9 °F 68% 30.00 in 10.0 mi West 16.1 mph 21.9 mph N/A   Clear
5:55 AM 43.0 °F 38.2 °F 32.7 °F 67% 30.01 in 10.0 mi WNW 8.1 mph - N/A   Clear
6:15 AM 43.3 °F 35.8 °F 32.5 °F 66% 30.01 in 10.0 mi WNW 16.1 mph 19.6 mph N/A   Clear
6:35 AM 43.7 °F 36.6 °F 32.5 °F 65% 30.02 in 10.0 mi West 15.0 mph 21.9 mph N/A   Clear
6:55 AM 43.7 °F 37.7 °F 32.5 °F 65% 30.02 in 10.0 mi WNW 11.5 mph - N/A   Clear
7:15 AM 43.9 °F 37.9 °F 32.4 °F 64% 30.02 in 10.0 mi WNW 11.5 mph 16.1 mph N/A   Clear
7:35 AM 44.6 °F 37.8 °F 32.5 °F 63% 30.03 in 10.0 mi WNW 15.0 mph - N/A   Clear
7:55 AM 45.5 °F 41.3 °F 32.5 °F 61% 30.04 in 10.0 mi WNW 8.1 mph 17.3 mph N/A   Clear
8:15 AM 45.0 °F 37.9 °F 32.7 °F 62% 30.04 in 10.0 mi West 16.1 mph 21.9 mph N/A   Clear
8:35 AM 45.7 °F 37.4 °F 32.9 °F 61% 30.04 in 10.0 mi West 23.0 mph - N/A   Clear
8:55 AM 45.9 °F 38.8 °F 32.9 °F 61% 30.05 in 10.0 mi WNW 17.3 mph 23.0 mph N/A   Clear
9:15 AM 45.7 °F 38.3 °F 33.1 °F 61% 30.05 in 10.0 mi West 18.4 mph 23.0 mph N/A   Clear
9:35 AM 46.4 °F 40.1 °F 33.8 °F 62% 30.05 in 10.0 mi West 15.0 mph 24.2 mph N/A   Clear
9:55 AM 47.3 °F - 33.6 °F 59% 30.05 in 10.0 mi WNW 11.5 mph 20.7 mph N/A   Clear
10:15 AM 48.2 °F - 33.1 °F 56% 30.05 in 10.0 mi West 9.2 mph 19.6 mph N/A   Clear
10:35 AM 49.1 °F - 31.8 °F 51% 30.05 in 10.0 mi West 11.5 mph 21.9 mph N/A   Clear
10:55 AM 49.6 °F - 31.3 °F 49% 30.05 in 10.0 mi WNW 5.8 mph 19.6 mph N/A   Clear
11:15 AM 50.9 °F - 30.4 °F 45% 30.05 in 10.0 mi West 8.1 mph 18.4 mph N/A   Clear
11:35 AM 51.6 °F - 27.1 °F 39% 30.05 in 10.0 mi NW 10.4 mph 19.6 mph N/A   Clear
11:55 AM 52.5 °F - 27.0 °F 37% 30.05 in 10.0 mi West 12.7 mph 16.1 mph N/A   Clear
12:15 PM 53.2 °F - 27.5 °F 37% 30.05 in 10.0 mi West 9.2 mph 17.3 mph N/A   Clear
12:35 PM 53.8 °F - 26.4 °F 35% 30.05 in 10.0 mi West 9.2 mph - N/A   Clear
12:55 PM 54.9 °F - 25.2 °F 32% 30.04 in 10.0 mi SW 10.4 mph 16.1 mph N/A   Clear
1:15 PM 55.6 °F - 22.5 °F 28% 30.03 in 10.0 mi WNW 8.1 mph - N/A   Clear
1:35 PM 55.8 °F - 24.8 °F 30% 30.02 in 10.0 mi WSW 8.1 mph - N/A   Clear
1:55 PM 56.3 °F - 22.3 °F 27% 30.02 in 10.0 mi WNW 16.1 mph 21.9 mph N/A   Clear
2:15 PM 57.0 °F - 24.8 °F 29% 30.01 in 10.0 mi WSW 9.2 mph 12.7 mph N/A   Clear
2:35 PM 56.5 °F - 23.9 °F 28% 30.00 in 10.0 mi West 6.9 mph - N/A   Clear
2:55 PM 57.0 °F - 23.4 °F 27% 30.01 in 10.0 mi West 10.4 mph 17.3 mph N/A   Clear
3:15 PM 57.4 °F - 23.2 °F 27% 30.00 in 10.0 mi West 9.2 mph - N/A   Clear
3:35 PM 57.0 °F - 22.3 °F 26% 30.00 in 10.0 mi West 10.4 mph - N/A   Clear
3:55 PM 57.4 °F - 20.7 °F 24% 30.00 in 10.0 mi WSW 11.5 mph 18.4 mph N/A   Clear
4:15 PM 57.2 °F - 21.4 °F 25% 30.00 in 10.0 mi West 6.9 mph 16.1 mph N/A   Clear
4:35 PM 56.8 °F - 20.7 °F 25% 30.00 in 10.0 mi West 10.4 mph 20.7 mph N/A   Clear
4:55 PM 56.5 °F - 21.2 °F 25% 30.00 in 10.0 mi West 11.5 mph 17.3 mph N/A   Clear
5:15 PM 56.3 °F - 22.5 °F 27% 30.01 in 10.0 mi West 8.1 mph 16.1 mph N/A   Clear
5:35 PM 55.8 °F - 22.8 °F 28% 30.02 in 10.0 mi West 11.5 mph 18.4 mph N/A   Clear
5:55 PM 54.9 °F - 23.0 °F 29% 30.02 in 10.0 mi West 12.7 mph 18.4 mph N/A   Clear
6:15 PM 53.8 °F - 23.7 °F 31% 30.03 in 10.0 mi West 10.4 mph 16.1 mph N/A   Clear
6:35 PM 53.1 °F - 24.3 °F 33% 30.03 in 10.0 mi West 9.2 mph - N/A   Clear
6:55 PM 52.5 °F - 24.8 °F 34% 30.04 in 10.0 mi West 9.2 mph - N/A   Clear
7:15 PM 52.0 °F - 25.2 °F 35% 30.04 in 10.0 mi West 6.9 mph - N/A   Clear
7:35 PM 51.6 °F - 24.8 °F 35% 30.03 in 10.0 mi West 8.1 mph - N/A   Clear
7:55 PM 51.3 °F - 24.8 °F 36% 30.03 in 10.0 mi West 6.9 mph - N/A   Clear
8:15 PM 51.4 °F - 24.4 °F 35% 30.03 in 10.0 mi West 10.4 mph 16.1 mph N/A   Clear
8:35 PM 51.1 °F - 24.4 °F 35% 30.03 in 10.0 mi West 5.8 mph - N/A   Clear
8:55 PM 50.5 °F - 24.8 °F 37% 30.02 in 10.0 mi West 5.8 mph - N/A   Clear
9:15 PM 50.5 °F - 24.8 °F 37% 30.03 in 10.0 mi West 5.8 mph - N/A   Clear
9:35 PM 50.9 °F - 25.3 °F 37% 30.02 in 10.0 mi West 8.1 mph 16.1 mph N/A   Clear
9:55 PM 50.2 °F - 25.7 °F 39% 30.02 in 10.0 mi West 11.5 mph 16.1 mph N/A   Clear
10:15 PM 50.2 °F - 26.4 °F 40% 30.02 in 10.0 mi West 8.1 mph 11.5 mph N/A   Clear
10:35 PM 50.4 °F - 26.4 °F 39% 30.02 in 10.0 mi West 9.2 mph - N/A   Clear
10:55 PM 50.5 °F - 26.6 °F 39% 30.02 in 10.0 mi West 6.9 mph 16.1 mph N/A   Clear
11:15 PM 50.4 °F - 26.6 °F 40% 30.02 in 10.0 mi West 10.4 mph 17.3 mph N/A   Clear
11:35 PM 50.2 °F - 27.3 °F 41% 30.02 in 10.0 mi West 15.0 mph 25.3 mph N/A   Clear
11:55 PM 50.0 °F - 27.3 °F 41% 30.02 in 10.0 mi West 13.8 mph 24.2 mph N/A   Clear